Stetsonville, WI

11:32 AM CDT on July 23, 2016 (GMT -0500)
Taylor County

Weather History for KMDZ - May, 2014

Change the Weather History Date:

Monday, May 19, 2014

  Actual Average Record
Temperature  
Mean Temperature 52 °F -  
Max Temperature 59 °F 68 °F 86 °F (1972)
Min Temperature 44 °F 44 °F 30 °F (1981)
Degree Days  
Heating Degree Days 14    
Growing Degree Days 2 (Base 50)    
Moisture  
Dew Point 43 °F    
Average Humidity 77    
Maximum Humidity 99    
Minimum Humidity 48    
Precipitation  
Precipitation 1.32 in - - ()
Sea Level Pressure  
Sea Level Pressure 30.02 in    
Wind  
Wind Speed 10 mph (SSE)    
Max Wind Speed 24 mph    
Max Gust Speed 32 mph    
Visibility 8 miles    
Events Rain , Thunderstorm    
Averages and records for this station are not official NWS values.
T = Trace of Precipitation, MM = Missing Value Source: NWS Daily Summary

Daily Weather History Graph

Daily Weather History Graph

Search for Another Location

Airport or City:

Trip Planner

Search our weather history database for the weather conditions in past years. The results will help you decide how hot, cold, wet, or windy it might be!

Date:

Astronomy

May. 19, 2014 Rise Set
Actual Time 5:27 AM CDT 8:28 PM CDT
Civil Twilight 4:52 AM CDT 9:03 PM CDT
Nautical Twilight 4:08 AM CDT 9:48 PM CDT
Astronomical Twilight 3:14 AM CDT 10:42 PM CDT
Moon 12:12 AM CDT (5/19) 10:29 AM CDT (5/19)
Length of Visible Light 16h 10m
Length of Day
15h 00m
Waning Gibbous, 71% of the Moon is Illuminated
May 19
Waning Gibbous
May 21
Last Quarter
May 28
New
Jun 5
First Quarter
Jun 12
Full

Hourly Weather History & Observations

Time (CDT) Temp. Windchill Dew Point Humidity Pressure Visibility Wind Dir Wind Speed Gust Speed Precip Events Conditions
12:15 AM 55.0 °F - 35.8 °F 48% 30.10 in 10.0 mi South 6.9 mph - N/A   Overcast
12:35 AM 55.6 °F - 36.1 °F 48% 30.10 in 10.0 mi SSW 10.4 mph 16.1 mph N/A   Overcast
12:55 AM 54.9 °F - 36.3 °F 50% 30.10 in 10.0 mi South 9.2 mph - N/A   Overcast
1:15 AM 54.1 °F - 36.5 °F 51% 30.10 in 10.0 mi South 8.1 mph - N/A   Mostly Cloudy
1:35 AM 53.6 °F - 36.5 °F 52% 30.10 in 10.0 mi SSW 9.2 mph - N/A   Scattered Clouds
1:55 AM 52.5 °F - 36.9 °F 55% 30.10 in 10.0 mi SSW 9.2 mph - N/A   Clear
2:15 AM 52.5 °F - 36.5 °F 54% 30.10 in 10.0 mi South 6.9 mph - N/A   Clear
2:35 AM 50.9 °F - 36.7 °F 58% 30.11 in 10.0 mi South 6.9 mph - N/A   Clear
2:55 AM 49.1 °F - 36.7 °F 62% 30.10 in 10.0 mi South 8.1 mph - N/A   Clear
3:15 AM 48.2 °F - 36.7 °F 64% 30.10 in 10.0 mi South 6.9 mph - N/A   Clear
3:35 AM 47.3 °F - 36.7 °F 67% 30.11 in 10.0 mi SSE 5.8 mph - N/A   Clear
3:55 AM 46.0 °F 42.5 °F 36.7 °F 70% 30.11 in 10.0 mi SSE 6.9 mph - N/A   Clear
4:15 AM 47.5 °F - 36.5 °F 66% 30.11 in 10.0 mi SSE 5.8 mph - N/A   Clear
4:35 AM 45.7 °F 42.0 °F 36.5 °F 70% 30.11 in 10.0 mi SSE 6.9 mph - N/A   Clear
4:55 AM 45.0 °F 40.6 °F 36.5 °F 72% 30.11 in 10.0 mi SSE 8.1 mph - N/A   Clear
5:15 AM 44.1 °F 39.5 °F 36.5 °F 75% 30.10 in 10.0 mi SSE 8.1 mph - N/A   Clear
5:35 AM 44.8 °F 40.4 °F 36.9 °F 74% 30.10 in 10.0 mi SSE 8.1 mph - N/A   Clear
5:55 AM 46.0 °F 41.9 °F 37.0 °F 71% 30.10 in 10.0 mi SSE 8.1 mph - N/A   Clear
6:15 AM 46.6 °F - 37.6 °F 71% 30.10 in 10.0 mi SSE 6.9 mph - N/A   Clear
6:35 AM 47.7 °F - 38.5 °F 70% 30.10 in 10.0 mi SSE 6.9 mph - N/A   Clear
6:55 AM 48.7 °F - 39.7 °F 71% 30.09 in 10.0 mi SSE 9.2 mph - N/A   Clear
7:15 AM 50.5 °F - 40.3 °F 68% 30.09 in 10.0 mi SSE 9.2 mph - N/A   Clear
7:35 AM 51.8 °F - 40.5 °F 65% 30.09 in 10.0 mi SSE 11.5 mph - N/A   Clear
9:35 AM 57.6 °F - 41.4 °F 55% 30.06 in 10.0 mi SSE 16.1 mph 21.9 mph N/A   Clear
9:55 AM 59.2 °F - 42.1 °F 53% 30.06 in 10.0 mi SSE 13.8 mph 20.7 mph N/A   Clear
10:15 AM 59.0 °F - 40.1 °F 50% 30.06 in 10.0 mi SSE 16.1 mph 23.0 mph N/A   Scattered Clouds
10:35 AM 58.5 °F - 41.2 °F 53% 30.06 in 10.0 mi SSE 13.8 mph - N/A   Scattered Clouds
10:55 AM 58.6 °F - 40.5 °F 51% 30.05 in 10.0 mi SSE 16.1 mph 21.9 mph N/A   Mostly Cloudy
11:15 AM 58.6 °F - 40.6 °F 51% 30.04 in 10.0 mi SSE 16.1 mph 25.3 mph N/A   Mostly Cloudy
11:35 AM 59.2 °F - 42.8 °F 55% 30.04 in 10.0 mi SSE 15.0 mph 21.9 mph N/A   Overcast
11:55 AM 56.1 °F - 44.6 °F 65% 30.05 in 10.0 mi SSE 16.1 mph 23.0 mph N/A Rain Rain
12:15 PM 55.0 °F - 45.5 °F 70% 30.04 in 10.0 mi SSE 12.7 mph 18.4 mph N/A Rain Light Rain
12:35 PM 52.7 °F - 47.5 °F 82% 30.04 in 7.0 mi South 11.5 mph 20.7 mph 0.01 in Rain Light Rain
12:55 PM 51.4 °F - 48.2 °F 89% 30.04 in 10.0 mi SSE 10.4 mph 17.3 mph 0.03 in Rain Light Rain
1:15 PM 50.9 °F - 47.7 °F 89% 30.04 in 10.0 mi SSE 10.4 mph - 0.01 in Rain Light Rain
1:35 PM 51.1 °F - 47.3 °F 87% 30.05 in 10.0 mi SE 6.9 mph - 0.02 in Rain Light Rain
1:55 PM 50.9 °F - 48.0 °F 90% 30.03 in 5.0 mi SE 9.2 mph - 0.06 in Rain Rain
2:15 PM 50.4 °F - 48.4 °F 93% 30.01 in 4.0 mi SE 9.2 mph 17.3 mph 0.07 in Rain Rain
2:35 PM 50.5 °F - 48.4 °F 92% 30.01 in 7.0 mi SE 9.2 mph - 0.10 in Rain Light Rain
3:15 PM 49.5 °F - 47.3 °F 92% 30.02 in 4.0 mi SE 12.7 mph 17.3 mph 0.05 in Rain Rain
3:35 PM 49.1 °F - 46.6 °F 91% 30.02 in 5.0 mi SE 10.4 mph 17.3 mph 0.10 in Rain Rain
3:55 PM 48.2 °F - 46.4 °F 93% 30.00 in 4.0 mi SE 12.7 mph 17.3 mph 0.17 in Rain Heavy Rain
4:15 PM 48.0 °F - 46.4 °F 94% 30.00 in 4.0 mi ESE 8.1 mph - 0.07 in Rain Heavy Rain
4:35 PM 47.5 °F - 46.0 °F 95% 30.00 in 3.0 mi ESE 9.2 mph 17.3 mph 0.15 in Rain Heavy Rain
4:55 PM 47.3 °F - 45.9 °F 95% 30.00 in 3.0 mi ESE 10.4 mph 16.1 mph 0.26 in Rain Heavy Rain
5:15 PM 47.3 °F - 45.7 °F 94% 29.97 in 4.0 mi ESE 11.5 mph 21.9 mph 0.05 in Rain Rain
5:55 PM 46.4 °F 40.7 °F 44.6 °F 93% 29.95 in 3.0 mi ESE 12.7 mph 19.6 mph 0.21 in Rain , Thunderstorm Thunderstorms and Rain
6:35 PM 46.8 °F - 45.7 °F 96% 29.94 in 2.5 mi SSE 18.4 mph 26.5 mph 0.17 in Rain Heavy Rain
6:55 PM 46.4 °F 38.1 °F 46.2 °F 99% 29.93 in 2.5 mi SSE 24.2 mph 28.8 mph 0.25 in Rain Rain
7:15 PM 46.8 °F - 46.4 °F 99% 29.92 in 3.0 mi SSE 23.0 mph 31.1 mph 0.04 in Rain Rain
7:35 PM 47.1 °F - 46.6 °F 98% 29.91 in 3.0 mi SSE 21.9 mph 31.1 mph 0.08 in Rain Rain
7:55 PM 47.3 °F - 46.9 °F 99% 29.92 in 5.0 mi SSE 16.1 mph 23.0 mph 0.10 in Rain , Thunderstorm Light Thunderstorms and Rain
8:15 PM 47.7 °F - 47.3 °F 99% 29.90 in 5.0 mi SSE 20.7 mph 32.2 mph 0.01 in   Light Drizzle
8:35 PM 48.4 °F - 47.7 °F 97% 29.91 in 10.0 mi SSE 19.6 mph 25.3 mph 0.01 in   Overcast
8:55 PM 49.1 °F - 47.7 °F 95% 29.91 in 10.0 mi SSE 16.1 mph 23.0 mph 0.01 in Rain Light Rain
9:15 PM 49.3 °F - 47.5 °F 94% 29.91 in 10.0 mi SE 18.4 mph 21.9 mph N/A   Light Drizzle
9:35 PM 49.3 °F - 47.5 °F 94% 29.90 in 10.0 mi SE 15.0 mph 21.9 mph N/A   Light Drizzle
9:55 PM 50.0 °F - 46.4 °F 87% 29.90 in 10.0 mi SE 11.5 mph 23.0 mph N/A Rain Light Rain
10:15 PM 49.8 °F - 46.4 °F 88% 29.90 in 10.0 mi SE 15.0 mph 19.6 mph N/A Rain Light Rain
10:35 PM 50.0 °F - 45.9 °F 86% 29.91 in 10.0 mi SE 9.2 mph 17.3 mph N/A   Overcast
10:55 PM 50.0 °F - 45.7 °F 85% 29.91 in 10.0 mi SE 11.5 mph - N/A   Overcast
11:15 PM 50.0 °F - 45.7 °F 85% 29.90 in 10.0 mi SE 9.2 mph 17.3 mph N/A   Light Drizzle
11:35 PM 49.5 °F - 46.0 °F 88% 29.89 in 10.0 mi ESE 10.4 mph 20.7 mph N/A   Drizzle
11:55 PM 48.7 °F - 46.8 °F 93% 29.88 in 2.5 mi ESE 8.1 mph 17.3 mph 0.13 in Rain , Thunderstorm Light Thunderstorms and Rain